This is the latest recevied weather packets stored in our database for station/object SR3WXA. If no packets are shown the sender has not sent any weather packets the latest 1 day(s).
| Time | Temp. | Humidity | Pressure | Rain* | Wind** | Luminosity | Snow |
|---|---|---|---|---|---|---|---|
| 1778080692 | 17.22° C | 78% | 1006.2 hPa | 0 mm | - | 297 W/m² | - |
| 1778080392 | 17.22° C | 78% | 1006.1 hPa | 0 mm | - | 364 W/m² | - |
| 1778080123 | 17.78° C | 79% | 1006 hPa | 0 mm | - | 422 W/m² | - |
| 1778080092 | 17.78° C | 79% | 1006 hPa | 0 mm | - | 422 W/m² | - |
| 1778079492 | 17.78° C | 78% | 1006 hPa | 0 mm | - | 207 W/m² | - |
| 1778079192 | 17.78° C | 77% | 1006.1 hPa | 0 mm | - | 83 W/m² | - |
| 1778078892 | 18.33° C | 77% | 1006 hPa | 0 mm | - | 109 W/m² | - |
| 1778078592 | 18.33° C | 79% | 1006 hPa | 0 mm | - | 594 W/m² | - |
| 1778077684 | 17.78° C | 81% | 1005.7 hPa | 0 mm | - | 160 W/m² | - |
| 1778077351 | 17.22° C | 82% | 1005.8 hPa | 0 mm | - | 638 W/m² | - |
| 1778076451 | 17.22° C | 80% | 1005.8 hPa | 0 mm | - | 148 W/m² | - |
| 1778076158 | 17.22° C | 78% | 1005.8 hPa | 0 mm | - | 125 W/m² | - |
| 1778075808 | 17.78° C | 78% | 1005.9 hPa | 0 mm | - | 46 W/m² | - |
| 1778075208 | 17.78° C | 78% | 1005.6 hPa | 0 mm | - | 320 W/m² | - |
| 1778074976 | 17.22° C | 78% | 1005.6 hPa | 0 mm | - | 179 W/m² | - |
| 1778074908 | 17.22° C | 78% | 1005.6 hPa | 0 mm | - | 179 W/m² | - |
| 1778074643 | 17.22° C | 78% | 1005.6 hPa | 0 mm | - | 123 W/m² | - |
| 1778074608 | 17.22° C | 78% | 1005.6 hPa | 0 mm | - | 123 W/m² | - |
| 1778074342 | 17.22° C | 77% | 1005.6 hPa | 0 mm | - | 81 W/m² | - |
| 1778074008 | 17.22° C | 77% | 1005.6 hPa | 0 mm | - | 105 W/m² | - |
| 1778073708 | 17.22° C | 76% | 1005.6 hPa | 0 mm | - | 49 W/m² | - |
| 1778073409 | 17.22° C | 76% | 1005.5 hPa | 0 mm | - | 62 W/m² | - |
| 1778073125 | 17.78° C | 75% | 1005.5 hPa | 0 mm | - | 60 W/m² | - |
| 1778071284 | 17.78° C | 72% | 1005.4 hPa | 0 mm | - | 207 W/m² | - |
| 1778070671 | 17.78° C | 72% | 1005.4 hPa | 0 mm | - | 192 W/m² | - |
* Rain latest hour (hover to see other rain measurements)
** Current wind speed in m/s (hover to see current wind gust speed)